« Back
NWS Peachtree City, Ga » Text Product » GA Regional Weather Roundup


Printer-friendly Version
Current Version              Previous Versions:   1  2  3  4  5  6  7  8  9  

Regional Weather Roundup

420
ASUS42 KFFC 060303
RWRGA
WEATHER ROUNDUP FOR GEORGIA
NATIONAL WEATHER SERVICE PEACHTREE CITY GA
1000 PM EST THU MAR 05 2015

NOTE: "FAIR" INDICATES FEW OR NO CLOUDS BELOW 12,000 FEET WITH NO
SIGNIFICANT WEATHER AND/OR OBSTRUCTIONS TO VISIBILITY.

* = USE WITH CAUTION. THE STATIONS MARKED WITH AN ASTERISK MAY NOT
REPORT WEATHER SUCH AS PRECIPITATION, FOG, OR THUNDER AND ARE NOT
QUALITY CONTROLLED BY NWS.

THE REMARK "TC" DENOTES TEMPERATURE READING IN DEGREES CELSIUS.

GAZ001>058-060400-
NORTH GEORGIA

CITY           SKY/WX    TMP DP  RH WIND       PRES   REMARKS
ATLANTA        CLOUDY    32  25  75 NW15      30.29R WCI  22
ATHENS         CLOUDY    41  32  70 NW8       30.23R
CHAMBLEE       CLOUDY    31  25  78 NW13      30.29R WCI  21
PEACHTREE CITY CLOUDY    33  26  75 NW13      30.31R WCI  24
ROME           CLOUDY    29  22  75 N14G22    30.38R WCI  18
WEST ATLANTA   CLOUDY    31  23  72 NW13      30.31R WCI  21
GAINESVILLE    CLOUDY    35  27  72 NW8       30.25R WCI  29
CARTERSVILLE   CLOUDY    29  21  72 N9G24     30.36R WCI  20


CITY           SKY/WX    TMP DP  RH WIND       PRES   REMARKS
DALTON*        CLOUDY    28  23  80 N16G22    30.38S WCI  17
MARIETTA       CLOUDY    29  25  82 NW13      30.29R WCI  19
KENNESAW*      CLOUDY    28  23  80 N8G18     30.32R WCI  20
$$

GAZ059>098-102>109-060400-
CENTRAL GEORGIA

CITY           SKY/WX    TMP DP  RH WIND       PRES   REMARKS
AUGUSTA-BUSH   CLOUDY    51  43  74 N17       30.19R
AUGUSTA-DANIEL CLOUDY    50  43  77 NW10G20   30.21R
COLUMBUS       MOCLDY    37  27  67 N12G18    30.31R WCI  29
MACON          MOCLDY    40  32  73 N8        30.24R WCI  34
ROBINS AFB     MOCLDY    42  34  73 N14       30.20R


CITY           SKY/WX    TMP DP  RH WIND       PRES   REMARKS
LAGRANGE*      MOCLDY    37  31  79 N12       30.32R WCI  29
SYLVANIA*      CLOUDY    54  51  92 NW9       30.17R
MILLEDGEVILLE* MOCLDY    41  36  81 NW7       30.24S
$$

GAZ099>101-110>166-060400-
SOUTH GEORGIA

CITY           SKY/WX    TMP DP  RH WIND       PRES   REMARKS
SAVANNAH       CLOUDY    60  56  86 NW15      30.14R
VALDOSTA       MOCLDY    59  56  89 VRB3      30.18R
ALMA           CLOUDY    55  50  83 NW18G26   30.19R
ST SIMONS      CLOUDY    64  61  90 NW6       30.14R
FT STEWART     CLOUDY    60  56  87 NW14      30.13R
ALBANY         MOCLDY    46  40  79 NW12      30.29R
HUNTER AFB     CLOUDY    61  60  97 NW13G22   30.12R
MOODY AFB      CLOUDY    58  55  88 NW15      30.17R
BRUNSWICK      CLOUDY    64  61  88 W7        30.15R


CITY           SKY/WX    TMP DP  RH WIND       PRES   REMARKS
BAINBRIDGE*    CLOUDY    48  43  81 N9        30.28R
MOULTRIE*      CLOUDY    50  46  87 NW12      30.23R
VIDALIA*       CLOUDY    50  45  81 NW12      30.20R
WAYCROSS*      MOCLDY    62  58  89 N13       30.17R
DOUGLAS*       CLOUDY    54  50  87 N12       30.22R
$$



USA.gov is the U.S. government's official web portal to all federal, state and local government web resources and services.